This is the latest recevied weather packets stored in our database for station/object K1ABC. If no packets are shown the sender has not sent any weather packets the latest 10 day(s).
| Time | Temp. | Humidity | Pressure | Rain* | Wind** | Luminosity | Snow |
|---|---|---|---|---|---|---|---|
| 1777983089 | 17.78° C | 59% | 1008.4 hPa | 0 mm | - | - | - |
| 1777979255 | 14.44° C | 66% | 1008.5 hPa | 0 mm | - | - | - |
| 1777978311 | 13.33° C | 69% | 1008.6 hPa | 0 mm | - | - | - |
| 1777977612 | 12.78° C | 69% | 1008.7 hPa | 0 mm | - | - | - |
| 1777976298 | 12.78° C | 68% | 1008.6 hPa | 0 mm | - | - | - |
| 1777976095 | 12.78° C | 69% | 1008.8 hPa | 0 mm | - | - | - |
| 1777975896 | 12.78° C | 69% | 1008.7 hPa | 0 mm | - | - | - |
| 1777975448 | 12.22° C | 69% | 1008.6 hPa | 0 mm | - | - | - |
| 1777974615 | 12.22° C | 69% | 1008.6 hPa | 0 mm | - | - | - |
| 1777972175 | 12.78° C | 67% | 1008.6 hPa | 0 mm | - | - | - |
| 1777971101 | 12.22° C | 68% | 1008.8 hPa | 0 mm | - | - | - |
| 1777970021 | 12.22° C | 68% | 1008.9 hPa | 0 mm | - | - | - |
| 1777969698 | 12.22° C | 68% | 1008.9 hPa | 0 mm | - | - | - |
| 1777968994 | 12.78° C | 67% | 1009 hPa | 0 mm | - | - | - |
| 1777968037 | 12.78° C | 66% | 1009.1 hPa | 0 mm | - | - | - |
| 1777966957 | 12.78° C | 66% | 1009.2 hPa | 0 mm | - | - | - |
| 1777965999 | 13.33° C | 66% | 1009.1 hPa | 0 mm | - | - | - |
| 1777965171 | 13.33° C | 65% | 1009.1 hPa | 0 mm | - | - | - |
| 1777964719 | 13.33° C | 64% | 1009.1 hPa | 0 mm | - | - | - |
| 1777964269 | 13.33° C | 64% | 1009.1 hPa | 0 mm | - | - | - |
| 1777962576 | 13.89° C | 63% | 1009.1 hPa | 0 mm | - | - | - |
| 1777962011 | 13.89° C | 62% | 1009.2 hPa | 0 mm | - | - | - |
| 1777961431 | 13.89° C | 61% | 1009.2 hPa | 0 mm | - | - | - |
| 1777960600 | 14.44° C | 61% | 1009.3 hPa | 0 mm | - | - | - |
| 1777959523 | 14.44° C | 60% | 1009.2 hPa | 0 mm | - | - | - |
* Rain latest hour (hover to see other rain measurements)
** Current wind speed in m/s (hover to see current wind gust speed)